Theta_e
308 309 311 314 316 316 316 315 313 312 311 309 306 304 302 302 304 306 308 310 312 313 314 317 323 324 321 322 329 328 326 328 329 328 329 326 324 324 326 327 326 326 326 327 328
309 308 307 311 314 315 315 315 315 313 312 311 310 308 304 303 302 302 303 304 307 312 313 313 316 323 322 322 329 325 324 327 325 325 327 327 325 324 325 327 327 327 327 327 327
309 309 308 307 310 313 313 314 316 316 313 312 311 310 308 306 304 302 302 303 303 305 312 316 315 320 324 322 328 325 324 323 326 327 327 327 326 325 323 323 326 327 327 327 328
307 308 308 308 309 310 311 310 313 314 316 313 311 310 310 308 300 309 308 302 303 302 308 315 319 323 323 321 325 327 326 326 327 328 327 326 327 327 324 325 326 326 327 327 327
305 307 309 309 309 310 310 309 308 311 314 315 312 311 310 310 306 312 314 310 303 302 308 316 320 323 322 321 322 326 325 327 327 327 326 326 327 326 327 327 326 327 328 328 328
302 304 306 308 309 310 310 310 309 307 311 315 313 311 311 309 309 305 311 313 311 303 314 317 317 321 323 321 320 320 323 325 325 327 326 325 325 326 326 327 328 328 328 328 328
301 302 305 306 307 309 310 310 310 307 308 314 314 311 311 311 309 305 304 308 314 306 307 312 318 322 323 323 323 322 322 320 320 322 321 323 322 322 324 324 324 326 327 326 326
300 301 301 303 305 307 310 310 310 308 307 311 315 312 312 311 312 311 305 304 309 310 307 311 318 322 322 322 321 321 321 322 318 320 321 322 321 317 321 323 324 323 323 324 323
299 300 301 301 303 305 308 310 310 309 308 309 314 312 313 312 312 312 310 310 312 313 314 314 317 320 322 318 319 318 316 319 318 318 319 319 320 318 319 319 322 323 323 322 321
298 298 300 300 301 304 307 309 309 309 308 310 313 313 311 311 312 312 311 312 316 315 319 319 317 316 316 320 313 316 319 317 317 316 316 318 318 316 320 319 319 319 320 320 319
298 299 299 300 300 301 304 308 309 309 310 310 313 312 311 312 312 311 309 315 318 317 315 316 315 315 315 317 313 311 316 316 315 316 319 317 317 317 317 316 317 318 318 317 315
298 299 299 299 300 301 302 306 309 309 308 310 312 312 311 311 310 310 310 312 315 315 314 316 316 311 312 315 316 315 315 315 315 315 316 315 314 313 313 314 315 316 315 317 318
297 298 298 298 299 301 303 304 308 308 309 309 309 312 311 310 310 310 310 311 314 315 315 311 311 312 313 315 318 318 317 314 315 315 314 315 315 312 312 314 315 316 318 318 319
297 298 298 298 300 301 302 303 305 307 308 309 311 311 311 309 309 309 309 312 313 314 313 312 309 312 313 314 316 317 316 314 315 316 314 314 310 310 311 313 313 315 317 318 318
297 298 297 298 301 302 301 302 304 308 310 308 310 311 311 310 309 308 308 312 311 311 312 312 311 310 313 313 315 314 315 316 314 314 316 314 315 312 314 315 313 313 316 317 317
297 297 298 299 301 301 302 302 304 308 309 309 310 312 311 309 309 308 308 311 312 311 311 310 312 311 311 312 313 312 313 315 314 317 317 314 314 311 310 312 313 314 316 316 316
298 297 297 299 301 300 303 305 305 308 306 308 310 311 311 310 309 308 308 311 312 314 314 312 311 311 313 313 313 314 314 311 315 317 314 309 313 312 310 310 310 310 314 315 316
297 297 297 298 300 300 300 305 306 306 305 307 310 311 312 309 310 309 308 311 311 308 310 312 312 311 310 314 314 315 314 309 309 312 313 311 316 313 312 313 313 313 314 314 314
297 298 298 298 298 300 302 304 304 304 306 309 309 311 311 310 310 309 309 310 312 308 306 310 310 307 309 312 313 314 316 312 312 306 309 311 311 312 311 311 312 313 313 313 309
298 298 299 299 299 298 298 303 305 304 305 308 310 309 311 310 310 310 309 309 311 310 305 306 308 308 309 312 312 312 312 315 315 314 315 312 313 314 312 310 309 308 310 310 307
298 298 297 298 298 296 299 299 300 300 303 307 307 310 310 310 310 309 309 307 309 309 306 304 305 307 310 312 312 313 314 312 311 314 314 310 312 309 311 311 308 307 310 307 307
297 296 297 298 297 298 299 299 300 301 300 303 306 307 308 309 311 311 309 307 308 308 308 304 304 308 310 306 309 311 312 313 313 312 313 311 310 307 307 308 307 309 307 307 307
297 296 297 298 298 298 297 298 299 301 302 303 304 306 305 308 310 309 308 306 307 306 308 306 307 306 309 309 309 311 311 311 310 306 311 312 312 306 306 305 308 307 306 305 303
296 293 297 299 296 294 295 296 298 300 301 302 301 302 306 308 307 309 307 305 306 307 308 308 306 308 308 308 308 311 311 311 312 312 312 311 309 308 305 303 304 305 304 303 301
297 296 296 297 298 287 294 296 299 299 298 300 301 301 303 308 309 309 307 306 306 307 308 308 309 306 306 306 307 308 310 311 311 312 311 310 310 310 304 303 303 304 300 299 299
297 296 297 293 297 293 291 294 298 298 299 299 300 302 302 302 305 308 307 307 307 306 308 308 308 305 302 305 306 306 308 309 311 311 311 309 308 306 306 304 299 298 298 297 295
296 297 297 296 289 296 294 295 297 298 300 300 301 301 302 302 301 306 307 307 306 307 308 308 309 309 309 305 306 306 307 308 309 310 311 312 310 303 298 296 294 294 294 292 291
Wind_Speed
25 26 29 26 21 21 22 19 17 14 13 14 14 16 21 23 25 26 27 27 20 18 17 15 8 8 7 2 2 1 4 1 3 4 3 3 2 2 3 4 5 5 4 4 3
24 26 28 29 26 22 20 21 20 17 14 13 13 13 14 18 23 29 29 26 23 19 16 13 12 8 2 1 1 3 3 7 3 3 2 1 2 6 3 4 5 6 7 5 5
25 23 26 28 28 26 25 22 18 20 17 14 12 11 12 12 14 20 20 23 22 20 18 12 10 8 4 4 3 2 5 4 3 4 1 3 1 3 4 3 9 11 8 7 8
27 25 26 28 28 28 27 26 24 20 20 17 14 11 9 7 6 1 3 13 23 23 20 16 7 5 4 5 7 3 6 4 3 4 2 2 2 3 7 5 5 8 6 8 11
31 28 26 28 28 28 28 27 25 25 20 20 16 12 12 9 17 2 1 4 12 25 23 20 13 8 5 5 6 4 5 8 9 6 5 4 6 7 8 12 8 10 8 10 13
32 34 29 28 28 27 28 26 25 26 24 21 19 17 19 11 13 21 6 2 2 19 23 20 8 12 4 4 8 3 8 8 7 13 8 4 7 7 4 9 17 18 17 12 13
30 34 34 29 29 27 27 27 25 25 24 21 21 22 26 26 7 6 22 11 3 8 24 21 13 11 3 2 8 4 3 3 5 7 6 5 8 10 26 22 21 16 16 18 20
27 28 30 32 29 29 27 26 26 24 22 22 22 24 20 22 21 24 7 17 7 7 17 19 19 6 4 1 1 4 3 3 3 13 7 11 18 1 12 19 23 26 26 26 24
29 28 29 30 29 26 27 26 24 24 22 22 24 25 10 16 30 22 21 10 10 11 15 14 14 6 5 4 2 2 3 5 6 12 4 8 9 4 6 15 16 17 19 21 24
29 30 29 29 28 25 25 24 22 20 22 21 28 16 15 11 20 20 19 17 14 15 11 10 8 4 6 9 9 6 4 5 6 2 6 6 12 9 15 13 17 18 22 26 32
32 30 28 29 29 28 23 22 14 12 27 27 10 19 10 16 16 17 22 24 17 19 11 14 6 19 19 15 6 6 5 8 2 3 3 8 12 19 19 17 21 33 32 29 32
33 31 30 28 29 26 29 27 22 6 9 36 27 32 13 23 13 21 33 20 14 10 9 8 23 5 8 7 7 4 4 5 4 3 3 5 11 14 14 15 25 29 34 32 29
35 33 31 29 30 29 35 38 26 16 5 15 47 26 22 26 15 31 40 28 19 16 17 10 3 16 9 8 13 13 16 4 3 3 3 5 16 10 11 15 20 26 30 28 27
34 33 30 29 29 33 38 39 32 28 4 9 15 21 31 16 8 21 46 31 7 19 9 11 15 7 5 18 15 16 7 7 5 3 5 3 10 7 4 5 5 13 18 23 25
34 32 31 31 29 27 40 36 31 26 14 11 14 18 23 27 15 15 39 29 14 10 11 9 9 16 11 9 12 6 8 12 6 4 3 7 4 5 1 4 6 10 14 14 15
29 28 28 29 34 26 30 32 33 11 9 10 19 17 20 13 12 23 29 23 11 5 17 6 2 11 14 7 16 7 5 4 3 9 10 16 8 17 11 6 5 10 16 17 13
23 26 28 28 25 34 22 31 12 22 7 6 16 20 26 15 15 12 21 21 13 8 12 16 6 3 6 8 4 8 8 3 6 7 13 10 8 21 3 4 5 9 13 6 1
19 22 27 31 28 25 32 15 20 24 12 4 13 21 27 16 14 16 23 21 18 8 7 12 10 15 5 8 8 22 14 5 7 5 8 4 10 17 4 21 27 27 20 7 10
16 19 23 31 30 29 22 15 9 10 9 15 14 24 17 13 7 12 22 31 26 20 10 12 12 5 7 5 14 15 17 8 3 1 2 5 7 10 7 7 7 4 5 12 16
14 17 21 25 24 23 6 11 4 4 5 12 20 15 21 21 18 19 22 24 25 23 4 7 1 5 7 6 11 9 7 8 7 8 9 4 4 9 2 6 5 7 16 22 17
13 9 7 22 21 8 3 3 1 9 7 8 11 9 19 14 15 19 24 14 27 26 16 7 4 0 12 15 22 8 9 6 4 7 5 3 7 7 11 6 8 10 26 21 18
10 2 8 21 4 2 3 5 2 2 3 4 1 3 6 18 16 16 18 13 41 27 25 7 5 4 12 4 12 19 16 19 6 10 5 1 5 4 7 8 18 20 20 17 13
7 4 7 24 4 2 2 1 3 3 4 2 3 3 4 6 10 12 13 20 34 17 19 13 5 4 2 1 0 11 13 14 5 2 11 6 8 1 4 10 14 20 15 13 15
9 2 5 11 6 6 4 3 3 6 2 1 4 4 5 5 11 11 11 4 26 28 27 25 6 17 15 8 7 12 18 18 20 12 17 11 8 3 3 7 13 18 14 16 16
13 5 7 5 8 3 6 6 8 4 1 4 3 6 2 3 11 11 10 7 13 28 22 12 15 10 12 3 5 8 19 20 17 24 14 19 13 17 9 10 14 14 18 17 14
11 6 6 2 6 8 7 6 10 5 8 7 7 10 7 5 15 16 18 9 13 18 21 9 4 8 1 3 6 4 13 18 22 23 19 4 13 5 13 18 16 19 18 15 10
25 11 7 8 4 6 8 12 11 6 6 9 5 1 5 18 25 24 23 22 14 21 17 9 9 9 19 5 3 2 21 15 17 16 20 17 17 6 5 11 13 18 16 13 7
Wind_Direction
258 251 243 246 246 247 251 254 260 267 274 274 272 269 262 261 260 261 258 255 259 260 263 267 268 294 313 337 354 38 66 229 220 168 238 175 152 154 184 166 179 203 259 294 304
259 255 248 244 244 247 247 250 253 258 262 270 275 278 275 267 265 261 258 258 255 254 260 264 264 264 254 300 313 115 130 213 197 228 246 144 201 175 173 170 203 214 234 254 270
256 255 253 246 243 245 247 250 251 251 253 258 267 272 279 280 286 277 273 257 249 244 248 253 254 246 209 202 204 158 178 222 264 200 252 315 305 198 186 223 219 223 223 237 230
254 252 250 247 242 241 244 247 251 254 250 248 251 256 262 262 233 242 243 219 223 217 226 231 214 187 185 187 192 188 221 202 237 227 169 225 293 285 219 223 262 200 243 239 244
257 251 250 247 242 241 241 244 245 249 251 241 239 235 226 223 229 223 277 290 220 200 207 211 195 184 182 200 179 208 204 209 228 226 247 253 244 248 248 243 248 239 258 264 256
250 255 254 249 244 242 238 241 242 243 243 240 233 225 225 230 254 240 228 311 197 214 200 201 206 208 216 211 184 219 213 222 226 242 252 251 268 249 214 251 249 251 269 263 258
260 253 252 254 248 244 239 236 237 237 236 239 228 223 230 233 233 240 235 227 200 215 207 202 207 187 206 177 237 242 290 332 213 222 239 227 276 232 251 257 262 253 255 269 271
262 258 254 253 253 245 242 233 231 232 232 233 231 223 236 247 249 246 289 232 229 191 214 206 207 215 197 268 27 172 167 199 237 184 231 167 260 149 241 233 247 258 264 269 271
260 257 254 250 247 246 242 236 233 232 229 226 226 215 243 233 239 240 230 203 206 196 203 213 217 213 188 109 11 270 217 221 300 207 164 188 269 267 224 220 235 250 258 269 279
253 255 252 252 247 243 236 236 230 228 223 222 225 204 222 195 228 238 229 192 183 190 185 193 188 191 191 187 212 192 198 235 210 259 218 209 258 253 252 263 263 262 264 275 282
255 255 244 246 246 239 236 226 212 223 218 204 199 204 144 193 199 211 194 182 181 179 188 187 187 211 193 205 212 181 187 204 231 260 208 235 247 263 263 253 259 266 273 272 278
250 249 244 239 241 235 230 227 207 179 209 222 224 209 203 171 165 197 179 173 186 184 147 184 225 157 169 189 202 181 192 215 296 241 210 289 266 264 253 247 250 263 272 274 276
242 243 241 233 232 230 228 229 222 207 248 216 222 214 199 186 183 185 184 187 183 185 194 198 207 169 169 179 206 224 225 142 187 355 299 347 289 240 259 238 249 252 258 262 265
232 240 234 227 230 225 228 225 225 218 244 204 192 220 205 179 219 198 191 180 178 203 173 233 238 192 190 204 187 223 178 165 183 99 241 131 278 230 229 249 209 247 250 255 258
225 234 229 220 222 220 224 218 217 208 232 184 173 198 196 198 155 194 189 185 182 179 169 210 160 199 214 201 181 220 153 195 164 177 29 245 286 288 240 282 266 257 255 259 271
226 227 224 223 224 214 213 211 205 221 219 172 153 169 164 187 192 166 186 196 194 157 214 199 192 177 209 161 182 134 78 81 116 223 243 234 201 265 234 199 218 244 250 269 285
229 226 221 221 233 216 191 192 208 221 153 203 168 172 176 177 189 169 177 193 183 174 198 209 217 237 163 146 131 166 134 184 214 210 239 152 178 246 264 276 239 244 256 240 148
222 223 218 223 230 210 208 203 225 209 203 170 167 179 186 160 187 185 172 190 201 181 165 189 212 209 195 192 186 201 197 164 195 209 233 183 214 236 213 240 260 250 255 183 153
222 216 218 227 230 220 208 213 222 212 156 157 171 175 185 181 149 164 187 190 190 184 163 186 227 242 174 160 170 192 213 199 109 58 89 213 280 303 239 250 250 258 217 178 148
214 212 215 213 217 217 231 218 251 155 155 164 178 187 182 181 176 184 184 198 192 196 164 197 211 185 172 134 228 172 140 195 219 210 230 257 256 232 308 260 196 153 155 146 135
212 179 220 214 219 205 223 254 187 311 296 185 180 166 202 179 185 182 181 181 190 191 197 162 140 341 139 204 197 167 207 213 182 197 207 199 249 218 227 190 173 162 146 142 130
200 171 180 186 191 207 164 162 160 221 305 65 103 127 167 200 198 185 188 187 195 189 194 174 135 156 199 327 211 212 213 204 203 208 211 119 265 303 227 192 159 155 142 135 117
184 170 178 187 218 169 135 233 133 163 277 132 135 186 110 195 211 198 205 211 189 180 183 181 199 131 41 37 201 206 218 211 191 77 202 201 232 90 144 127 149 140 127 106 117
167 165 185 217 208 155 139 223 204 204 212 116 122 97 194 235 203 201 192 161 183 192 193 177 190 208 214 229 133 199 208 208 208 223 229 222 242 241 184 156 151 138 124 132 132
180 208 178 192 201 187 172 186 193 177 75 164 184 185 171 259 205 213 192 151 185 191 194 193 215 208 228 160 195 207 209 208 210 222 216 229 218 236 185 172 153 136 139 135 129
164 166 171 218 163 156 196 216 210 190 157 205 221 161 156 228 271 191 183 156 183 188 192 191 229 183 195 144 178 187 207 205 210 222 225 247 234 174 165 137 130 142 148 141 135
204 174 172 178 141 166 211 206 209 152 239 206 218 77 197 237 245 264 183 184 163 173 185 189 182 179 222 148 82 272 221 198 213 215 208 216 222 157 111 123 133 146 153 146 143